E.r. Borneo — A8SZ4 — position and weather

sailwx.info

Track history (hours):
 
Tides and Currents Weather Stations Pressure Air Temp Water Temp Dewpoint Dewpoint Depression Visibility Wind Speed Wind Dir Waves Ship Positions

E.r. Borneo

Last reported at 2016-May-29 14:04 UTC. Time now 2016-Jun-24 22:19 UTC.
Position S 02°03' W 044°06'.
Warning: this ship's position is 26 days out of date.

Length 292 m; draft 18.3 m.

Type: Cargo ship. MMSI: 636091797.

Date/timePositionNaut miles runAvg speedWind from/ knotsBaromVisibWave heightAir tempDewpointWater temp
2016-May-29 14:04S 02°03' W 044°06'4 8.7
2016-May-29 13:33S 02°06' W 044°08'8 8.3
2016-May-29 12:33S 02°13' W 044°13'8 8.3
2016-May-29 11:33S 02°20' W 044°17'9 8.6
2016-May-29 10:33S 02°28' W 044°22'6 1.5
2016-May-29 06:20S 02°34' W 044°23'0 0.0
2016-May-29 04:17S 02°34' W 044°23'0 0.0
2016-May-29 02:26S 02°34' W 044°23'0 0.0
2016-May-28 16:20S 02°34' W 044°23'0 0.0
2016-May-28 15:32S 02°34' W 044°23'0 0.0
2016-May-28 14:32S 02°34' W 044°23'0 0.0
2016-May-28 13:32S 02°34' W 044°23'0 0.0
2016-May-28 12:32S 02°34' W 044°23'0 0.0
2016-May-28 11:32S 02°34' W 044°23'0 0.0
2016-May-28 10:32S 02°34' W 044°23'0 0.0
2016-May-28 09:14S 02°34' W 044°23'0 0.0
2016-May-28 07:20S 02°34' W 044°23'0 0.0
2016-May-28 06:32S 02°34' W 044°23'0 0.0
2016-May-28 05:32S 02°34' W 044°23'0 0.0
2016-May-28 04:32S 02°34' W 044°23'0 0.0
2016-May-28 03:32S 02°34' W 044°23'0 0.0
2016-May-28 02:29S 02°34' W 044°23'0 0.0
2016-May-28 01:29S 02°34' W 044°23'0 0.0
2016-May-28 00:32S 02°34' W 044°23'0 0.0
2016-May-27 23:32S 02°34' W 044°23'0 0.0
2016-May-27 22:26S 02°34' W 044°23'0 0.0
2016-May-27 21:23S 02°34' W 044°23'0 0.0
2016-May-27 20:29S 02°34' W 044°23'0 0.0
2016-May-27 19:32S 02°34' W 044°23'0 0.0
2016-May-27 18:32S 02°34' W 044°23'0 0.0
2016-May-27 17:32S 02°34' W 044°23'0 0.0
2016-May-27 16:32S 02°34' W 044°23'0 0.0
2016-May-27 15:32S 02°34' W 044°23'0 0.0
2016-May-27 14:32S 02°34' W 044°23'0 0.0
2016-May-27 13:32S 02°34' W 044°23'0 0.0
2016-May-27 12:32S 02°34' W 044°23'0 0.0
2016-May-27 11:32S 02°34' W 044°23'0 0.0
2016-May-27 10:32S 02°34' W 044°23'0 0.0
2016-May-27 09:32S 02°34' W 044°23'0 0.0
2016-May-27 08:33S 02°34' W 044°23'3 2.5
2016-May-27 07:33S 02°31' W 044°23'7 7.0
2016-May-27 06:33S 02°25' W 044°20'4 3.6
2016-May-27 05:33S 02°21' W 044°20'0 0.3
2016-May-27 04:32S 02°21' W 044°20'0 0.0
2016-May-27 03:32S 02°21' W 044°20'0 0.1
2016-May-27 02:32S 02°21' W 044°20'0 0.2
2016-May-27 01:32S 02°22' W 044°20'0 0.1
2016-May-27 00:32S 02°22' W 044°20'0 0.0
2016-May-26 23:32S 02°22' W 044°20'0 0.0
2016-May-26 22:32S 02°22' W 044°20'0 0.0
2016-May-26 21:32S 02°22' W 044°20'0 0.0
2016-May-26 20:32S 02°22' W 044°20'0 0.1
2016-May-26 19:32S 02°21' W 044°20'0 0.3
2016-May-26 18:32S 02°21' W 044°20'0 0.0
2016-May-26 17:32S 02°21' W 044°20'0 0.0
2016-May-26 16:32S 02°21' W 044°20'0 0.0
2016-May-26 15:32S 02°21' W 044°20'0 0.2
2016-May-26 14:32S 02°21' W 044°20'0 0.1
2016-May-26 13:32S 02°21' W 044°20'0 0.1
2016-May-26 12:32S 02°22' W 044°20'0 0.1
2016-May-26 11:32S 02°22' W 044°20'0 0.0
2016-May-26 10:32S 02°22' W 044°20'0 0.0
2016-May-26 09:32S 02°22' W 044°20'0 0.0
2016-May-26 08:32S 02°22' W 044°20'0 0.0
2016-May-26 07:32S 02°22' W 044°20'0 0.3
2016-May-26 06:32S 02°21' W 044°20'0 0.0
2016-May-26 05:32S 02°21' W 044°20'0 0.0
2016-May-26 04:32S 02°21' W 044°20'0 0.0
2016-May-26 03:32S 02°21' W 044°20'0 0.1
2016-May-26 02:32S 02°21' W 044°20'0 0.2
2016-May-26 01:32S 02°22' W 044°20'0 0.1
2016-May-26 00:32S 02°22' W 044°20'0 0.0
2016-May-25 23:32S 02°22' W 044°20'0 0.0
2016-May-25 22:32S 02°22' W 044°20'0 0.0
2016-May-25 21:32S 02°22' W 044°20'0 0.0
2016-May-25 20:29S 02°22' W 044°20'0 0.0
2016-May-25 19:32S 02°22' W 044°20'0 0.3
2016-May-25 18:32S 02°21' W 044°20'0 0.1
2016-May-25 17:32S 02°21' W 044°20'3 3.6
2016-May-25 16:33S 02°19' W 044°18'9 8.6
2016-May-25 15:33S 02°12' W 044°12'10 9.9
2016-May-25 14:33S 02°04' W 044°07'  
Track history (hours):
 
Tides and Currents Weather Stations Pressure Air Temp Water Temp Dewpoint Dewpoint Depression Visibility Wind Speed Wind Dir Waves Ship Positions

E.r. Borneo

Last reported at 2016-May-29 14:04 UTC. Time now 2016-Jun-24 22:19 UTC.
Position S 02°03' W 044°06'.
Warning: this ship's position is 26 days out of date.

Length 292 m; draft 18.3 m.

Type: Cargo ship. MMSI: 636091797.

Date/timePositionNaut miles runAvg speedWind from/ knotsBaromVisibWave heightAir tempDewpointWater temp
2016-May-29 14:04S 02°03' W 044°06'4 8.7
2016-May-29 13:33S 02°06' W 044°08'8 8.3
2016-May-29 12:33S 02°13' W 044°13'8 8.3
2016-May-29 11:33S 02°20' W 044°17'9 8.6
2016-May-29 10:33S 02°28' W 044°22'6 1.5
2016-May-29 06:20S 02°34' W 044°23'0 0.0
2016-May-29 04:17S 02°34' W 044°23'0 0.0
2016-May-29 02:26S 02°34' W 044°23'0 0.0
2016-May-28 16:20S 02°34' W 044°23'0 0.0
2016-May-28 15:32S 02°34' W 044°23'0 0.0
2016-May-28 14:32S 02°34' W 044°23'0 0.0
2016-May-28 13:32S 02°34' W 044°23'0 0.0
2016-May-28 12:32S 02°34' W 044°23'0 0.0
2016-May-28 11:32S 02°34' W 044°23'0 0.0
2016-May-28 10:32S 02°34' W 044°23'0 0.0
2016-May-28 09:14S 02°34' W 044°23'0 0.0
2016-May-28 07:20S 02°34' W 044°23'0 0.0
2016-May-28 06:32S 02°34' W 044°23'0 0.0
2016-May-28 05:32S 02°34' W 044°23'0 0.0
2016-May-28 04:32S 02°34' W 044°23'0 0.0
2016-May-28 03:32S 02°34' W 044°23'0 0.0
2016-May-28 02:29S 02°34' W 044°23'0 0.0
2016-May-28 01:29S 02°34' W 044°23'0 0.0
2016-May-28 00:32S 02°34' W 044°23'0 0.0
2016-May-27 23:32S 02°34' W 044°23'0 0.0
2016-May-27 22:26S 02°34' W 044°23'0 0.0
2016-May-27 21:23S 02°34' W 044°23'0 0.0
2016-May-27 20:29S 02°34' W 044°23'0 0.0
2016-May-27 19:32S 02°34' W 044°23'0 0.0
2016-May-27 18:32S 02°34' W 044°23'0 0.0
2016-May-27 17:32S 02°34' W 044°23'0 0.0
2016-May-27 16:32S 02°34' W 044°23'0 0.0
2016-May-27 15:32S 02°34' W 044°23'0 0.0
2016-May-27 14:32S 02°34' W 044°23'0 0.0
2016-May-27 13:32S 02°34' W 044°23'0 0.0
2016-May-27 12:32S 02°34' W 044°23'0 0.0
2016-May-27 11:32S 02°34' W 044°23'0 0.0
2016-May-27 10:32S 02°34' W 044°23'0 0.0
2016-May-27 09:32S 02°34' W 044°23'0 0.0
2016-May-27 08:33S 02°34' W 044°23'3 2.5
2016-May-27 07:33S 02°31' W 044°23'7 7.0
2016-May-27 06:33S 02°25' W 044°20'4 3.6
2016-May-27 05:33S 02°21' W 044°20'0 0.3
2016-May-27 04:32S 02°21' W 044°20'0 0.0
2016-May-27 03:32S 02°21' W 044°20'0 0.1
2016-May-27 02:32S 02°21' W 044°20'0 0.2
2016-May-27 01:32S 02°22' W 044°20'0 0.1
2016-May-27 00:32S 02°22' W 044°20'0 0.0
2016-May-26 23:32S 02°22' W 044°20'0 0.0
2016-May-26 22:32S 02°22' W 044°20'0 0.0
2016-May-26 21:32S 02°22' W 044°20'0 0.0
2016-May-26 20:32S 02°22' W 044°20'0 0.1
2016-May-26 19:32S 02°21' W 044°20'0 0.3
2016-May-26 18:32S 02°21' W 044°20'0 0.0
2016-May-26 17:32S 02°21' W 044°20'0 0.0
2016-May-26 16:32S 02°21' W 044°20'0 0.0
2016-May-26 15:32S 02°21' W 044°20'0 0.2
2016-May-26 14:32S 02°21' W 044°20'0 0.1
2016-May-26 13:32S 02°21' W 044°20'0 0.1
2016-May-26 12:32S 02°22' W 044°20'0 0.1
2016-May-26 11:32S 02°22' W 044°20'0 0.0
2016-May-26 10:32S 02°22' W 044°20'0 0.0
2016-May-26 09:32S 02°22' W 044°20'0 0.0
2016-May-26 08:32S 02°22' W 044°20'0 0.0
2016-May-26 07:32S 02°22' W 044°20'0 0.3
2016-May-26 06:32S 02°21' W 044°20'0 0.0
2016-May-26 05:32S 02°21' W 044°20'0 0.0
2016-May-26 04:32S 02°21' W 044°20'0 0.0
2016-May-26 03:32S 02°21' W 044°20'0 0.1
2016-May-26 02:32S 02°21' W 044°20'0 0.2
2016-May-26 01:32S 02°22' W 044°20'0 0.1
2016-May-26 00:32S 02°22' W 044°20'0 0.0
2016-May-25 23:32S 02°22' W 044°20'0 0.0
2016-May-25 22:32S 02°22' W 044°20'0 0.0
2016-May-25 21:32S 02°22' W 044°20'0 0.0
2016-May-25 20:29S 02°22' W 044°20'0 0.0
2016-May-25 19:32S 02°22' W 044°20'0 0.3
2016-May-25 18:32S 02°21' W 044°20'0 0.1
2016-May-25 17:32S 02°21' W 044°20'3 3.6
2016-May-25 16:33S 02°19' W 044°18'9 8.6
2016-May-25 15:33S 02°12' W 044°12'10 9.9
2016-May-25 14:33S 02°04' W 044°07'  

Dump ship's entire track history